TimeMST,TemperatureF,Dew PointF,Humidity,Sea Level PressureIn,VisibilityMPH,Wind Direction,Wind SpeedMPH,Gust SpeedMPH,PrecipitationIn,Events,Conditions,WindDirDegrees,DateUTC
12:15 AM,22.1,5.9,50,30.12,10.0,NW,15.0,18.4,N/A,,Clear,320,2013-02-13 07:15:00
12:35 AM,22.6,5.7,48,30.13,10.0,NW,15.0,-,N/A,,Clear,320,2013-02-13 07:35:00
12:55 AM,22.3,5.5,49,30.13,10.0,NW,10.4,-,N/A,,Clear,320,2013-02-13 07:55:00
1:15 AM,20.7,5.9,53,30.13,10.0,WNW,9.2,-,N/A,,Clear,290,2013-02-13 08:15:00
1:35 AM,23.0,6.1,48,30.14,10.0,West,9.2,16.1,N/A,,Clear,270,2013-02-13 08:35:00
1:55 AM,19.9,5.9,55,30.15,10.0,NW,11.5,-,N/A,,Clear,320,2013-02-13 08:55:00
2:15 AM,18.9,6.3,58,30.15,10.0,WSW,6.9,-,N/A,,Clear,240,2013-02-13 09:15:00
2:35 AM,19.6,5.9,55,30.15,10.0,West,9.2,-,N/A,,Clear,260,2013-02-13 09:35:00
2:55 AM,19.8,6.1,55,30.13,10.0,West,9.2,-,N/A,,Clear,260,2013-02-13 09:55:00
3:15 AM,18.0,5.5,58,30.13,10.0,WNW,6.9,-,N/A,,Scattered Clouds,300,2013-02-13 10:15:00
3:35 AM,17.6,5.9,60,30.12,10.0,West,5.8,-,N/A,,Scattered Clouds,280,2013-02-13 10:35:00
3:55 AM,18.3,5.7,58,30.11,10.0,NNW,4.6,-,N/A,,Clear,330,2013-02-13 10:55:00
4:15 AM,15.4,5.5,65,30.11,10.0,WNW,8.1,-,N/A,,Clear,300,2013-02-13 11:15:00
4:35 AM,17.6,5.7,60,30.12,10.0,WNW,5.8,-,N/A,,Clear,290,2013-02-13 11:35:00
4:55 AM,15.6,5.0,63,30.11,10.0,West,8.1,-,N/A,,Clear,280,2013-02-13 11:55:00
5:15 AM,16.5,5.2,61,30.12,10.0,WNW,6.9,-,N/A,,Clear,300,2013-02-13 12:15:00
5:35 AM,17.4,5.2,59,30.12,10.0,NNW,9.2,-,N/A,,Clear,330,2013-02-13 12:35:00
5:55 AM,18.3,5.5,57,30.12,10.0,NW,8.1,-,N/A,,Clear,320,2013-02-13 12:55:00
6:15 AM,18.0,5.5,58,30.13,10.0,WNW,6.9,-,N/A,,Clear,300,2013-02-13 13:15:00
6:35 AM,17.4,5.4,59,30.13,10.0,WNW,10.4,-,N/A,,Clear,300,2013-02-13 13:35:00
6:55 AM,19.4,5.5,55,30.13,10.0,NW,8.1,-,N/A,,Clear,320,2013-02-13 13:55:00
7:15 AM,18.7,5.7,57,30.14,10.0,WNW,12.7,17.3,N/A,,Clear,290,2013-02-13 14:15:00
7:35 AM,21.0,6.3,53,30.13,10.0,West,8.1,-,N/A,,Clear,270,2013-02-13 14:35:00
7:55 AM,23.2,6.6,49,30.13,10.0,WNW,11.5,-,N/A,,Clear,300,2013-02-13 14:55:00
8:15 AM,21.6,6.6,53,30.12,10.0,NNW,10.4,-,N/A,,Clear,330,2013-02-13 15:15:00
8:35 AM,23.2,7.7,52,30.13,10.0,NW,9.2,-,N/A,,Clear,320,2013-02-13 15:35:00
8:55 AM,24.6,8.1,49,30.13,10.0,NNW,9.2,12.7,N/A,,Clear,340,2013-02-13 15:55:00
9:15 AM,27.0,8.1,45,30.14,10.0,NNW,10.4,-,N/A,,Clear,340,2013-02-13 16:15:00
9:35 AM,29.3,7.7,40,30.13,10.0,North,9.2,-,N/A,,Clear,360,2013-02-13 16:35:00
9:55 AM,31.1,7.9,38,30.13,10.0,NW,5.8,-,N/A,,Clear,320,2013-02-13 16:55:00
10:15 AM,30.6,8.4,39,30.11,10.0,NNW,9.2,-,N/A,,Clear,340,2013-02-13 17:15:00
10:35 AM,32.2,8.4,37,30.10,10.0,NNW,11.5,16.1,N/A,,Clear,340,2013-02-13 17:35:00
10:55 AM,33.6,9.0,36,30.09,10.0,North,10.4,-,N/A,,Clear,350,2013-02-13 17:55:00
11:15 AM,34.0,9.1,36,30.09,10.0,NNW,5.8,-,N/A,,Clear,340,2013-02-13 18:15:00
11:35 AM,35.1,9.7,35,30.07,10.0,WSW,9.2,-,N/A,,Clear,250,2013-02-13 18:35:00
11:55 AM,36.7,11.1,35,30.07,10.0,NW,9.2,-,N/A,,Clear,320,2013-02-13 18:55:00
12:15 PM,38.5,11.3,33,30.07,10.0,WSW,16.1,19.6,N/A,,Clear,240,2013-02-13 19:15:00
12:35 PM,39.2,11.5,32,30.07,10.0,SSW,11.5,23.0,N/A,,Clear,210,2013-02-13 19:35:00
12:55 PM,39.0,12.6,34,30.07,10.0,SSW,12.7,21.9,N/A,,Clear,200,2013-02-13 19:55:00
1:15 PM,41.0,12.7,32,30.06,10.0,SW,13.8,24.2,N/A,,Clear,230,2013-02-13 20:15:00
1:35 PM,41.0,12.7,32,30.06,10.0,WSW,15.0,23.0,N/A,,Clear,250,2013-02-13 20:35:00
1:55 PM,40.6,13.5,33,30.05,10.0,West,18.4,25.3,N/A,,Clear,260,2013-02-13 20:55:00
2:15 PM,40.5,12.4,32,30.05,10.0,West,19.6,-,N/A,,Clear,260,2013-02-13 21:15:00
2:35 PM,42.3,13.6,31,30.04,10.0,SW,12.7,21.9,N/A,,Clear,220,2013-02-13 21:35:00
2:55 PM,41.4,12.2,30,30.04,10.0,SSW,16.1,20.7,N/A,,Clear,200,2013-02-13 21:55:00
3:15 PM,42.4,12.6,30,30.04,10.0,SSW,11.5,17.3,N/A,,Clear,210,2013-02-13 22:15:00
3:35 PM,41.9,12.0,30,30.06,10.0,SSW,10.4,19.6,N/A,,Clear,210,2013-02-13 22:35:00
3:55 PM,40.3,11.5,31,30.07,10.0,West,18.4,25.3,N/A,,Clear,260,2013-02-13 22:55:00
4:15 PM,39.2,11.7,32,30.07,10.0,West,15.0,26.5,N/A,,Clear,260,2013-02-13 23:15:00
4:35 PM,38.1,11.7,34,30.07,10.0,West,19.6,27.6,N/A,,Clear,260,2013-02-13 23:35:00
4:55 PM,36.5,12.4,37,30.07,10.0,West,15.0,24.2,N/A,,Clear,260,2013-02-13 23:55:00
5:15 PM,35.2,12.6,39,30.08,10.0,WSW,10.4,17.3,N/A,,Clear,250,2013-02-14 00:15:00
5:35 PM,34.0,13.1,42,30.09,10.0,West,10.4,13.8,N/A,,Clear,260,2013-02-14 00:35:00
5:55 PM,33.4,13.1,43,30.09,7.0,WSW,12.7,-,N/A,,Clear,250,2013-02-14 00:55:00
6:15 PM,32.7,13.3,45,30.10,10.0,SW,8.1,-,N/A,,Clear,230,2013-02-14 01:15:00
6:35 PM,32.0,13.3,46,30.11,10.0,West,10.4,-,N/A,,Clear,260,2013-02-14 01:35:00
6:55 PM,31.3,13.8,49,30.11,10.0,WSW,6.9,-,N/A,,Clear,240,2013-02-14 01:55:00
7:15 PM,30.0,13.6,51,30.12,10.0,SW,9.2,-,N/A,,Clear,230,2013-02-14 02:15:00
7:35 PM,31.8,13.5,47,30.13,10.0,SW,8.1,-,N/A,,Clear,230,2013-02-14 02:35:00
7:55 PM,30.6,13.6,50,30.13,10.0,West,6.9,-,N/A,,Clear,280,2013-02-14 02:55:00
8:15 PM,30.9,13.1,48,30.13,10.0,WSW,6.9,-,N/A,,Clear,240,2013-02-14 03:15:00
8:35 PM,30.9,12.7,47,30.13,10.0,WSW,4.6,-,N/A,,Clear,250,2013-02-14 03:35:00
8:55 PM,29.8,12.9,49,30.13,10.0,West,6.9,-,N/A,,Clear,260,2013-02-14 03:55:00
9:15 PM,30.0,13.1,49,30.12,10.0,WSW,10.4,16.1,N/A,,Clear,240,2013-02-14 04:15:00
9:35 PM,29.1,13.1,51,30.12,10.0,West,10.4,-,N/A,,Clear,260,2013-02-14 04:35:00
9:55 PM,28.9,12.6,50,30.12,10.0,West,5.8,17.3,N/A,,Clear,270,2013-02-14 04:55:00
10:15 PM,25.9,12.2,56,30.12,10.0,West,5.8,-,N/A,,Clear,280,2013-02-14 05:15:00
10:35 PM,24.6,11.5,57,30.12,10.0,WNW,3.5,-,N/A,,Clear,300,2013-02-14 05:35:00
10:55 PM,26.1,10.9,53,30.12,10.0,NNW,4.6,-,N/A,,Clear,330,2013-02-14 05:55:00
11:15 PM,27.1,11.1,51,30.12,10.0,NNW,5.8,-,N/A,,Clear,330,2013-02-14 06:15:00
11:35 PM,27.5,10.8,49,30.12,10.0,NW,4.6,-,N/A,,Clear,310,2013-02-14 06:35:00
11:55 PM,26.8,10.8,51,30.12,10.0,West,5.8,-,N/A,,Clear,270,2013-02-14 06:55:00